| time (UTC) | temp F | wind direction | speed knots | gust knots | rain 1hr in | rain 24hr in | rain mn in | humidity % | barometer mb |
| 20260507211517 | 60 | 0 | 2.6 | 7.0 | 0.00 | 0.65 | 0.33 | 76 | 1004.5 |
| 20260507210517 | 61 | 158 | 2.6 | 7.8 | 0.00 | 0.65 | 0.33 | 75 | 1004.7 |
| 20260507205517 | 61 | 180 | 2.6 | 8.7 | 0.00 | 0.65 | 0.33 | 74 | 1004.6 |
| 20260507204537 | 62 | 0 | 2.6 | 8.7 | 0.00 | 0.65 | 0.33 | 71 | 1004.4 |
| 20260507203537 | 63 | 0 | 4.3 | 9.6 | 0.00 | 0.65 | 0.33 | 69 | 1004.6 |
| 20260507202518 | 63 | 0 | 4.3 | 8.7 | 0.00 | 0.65 | 0.33 | 68 | 1004.5 |
| 20260507201517 | 62 | 203 | 3.5 | 9.6 | 0.00 | 0.65 | 0.33 | 68 | 1004.5 |
| 20260507200517 | 63 | 0 | 0.9 | 2.6 | 0.00 | 0.65 | 0.33 | 61 | 1004.4 |
| 20260507195517 | 64 | 0 | 1.7 | 4.3 | 0.00 | 0.65 | 0.33 | 57 | 1004.5 |
| 20260507194517 | 64 | 0 | 1.7 | 4.3 | 0.00 | 0.65 | 0.33 | 57 | 1004.6 |
| 20260507193517 | 63 | 0 | 1.7 | 4.3 | 0.00 | 0.65 | 0.33 | 59 | 1004.8 |
| 20260507192538 | 64 | 0 | 0.9 | 3.5 | 0.00 | 0.65 | 0.33 | 56 | 1005.0 |
| 20260507191517 | 64 | 0 | 1.7 | 5.2 | 0.00 | 0.65 | 0.33 | 59 | 1005.2 |
| 20260507190537 | 63 | 0 | 0.9 | 3.5 | 0.00 | 0.65 | 0.33 | 58 | 1005.3 |
| 20260507185517 | 63 | 68 | 1.7 | 4.3 | 0.00 | 0.65 | 0.33 | 58 | 1005.4 |
| 20260507184517 | 62 | 45 | 1.7 | 4.3 | 0.00 | 0.65 | 0.33 | 60 | 1005.6 |
| 20260507183517 | 61 | 0 | 1.7 | 3.5 | 0.00 | 0.65 | 0.33 | 63 | 1005.7 |
| 20260507182517 | 61 | 0 | 1.7 | 2.6 | 0.00 | 0.65 | 0.33 | 66 | 1005.9 |
| 20260507181517 | 60 | 0 | 1.7 | 3.5 | 0.00 | 0.65 | 0.33 | 69 | 1005.9 |
| 20260507180517 | 59 | 0 | 1.7 | 3.5 | 0.00 | 0.65 | 0.33 | 72 | 1006.0 |
| 20260507175517 | 58 | 0 | 1.7 | 3.5 | 0.00 | 0.65 | 0.33 | 71 | 1006.3 |
| 20260507174517 | 58 | 0 | 0.9 | 3.5 | 0.00 | 0.65 | 0.33 | 73 | 1006.4 |
| 20260507173518 | 58 | 0 | 2.6 | 4.3 | 0.00 | 0.65 | 0.33 | 73 | 1006.4 |
| 20260507172517 | 58 | 0 | 2.6 | 4.3 | 0.00 | 0.65 | 0.33 | 71 | 1006.4 |
| 20260507171517 | 58 | 0 | 1.7 | 3.5 | 0.00 | 0.65 | 0.33 | 76 | 1006.5 |
| 20260507170518 | 58 | 0 | 2.6 | 7.0 | 0.00 | 0.65 | 0.33 | 71 | 1006.7 |
| 20260507165517 | 59 | 0 | 2.6 | 7.0 | 0.00 | 0.65 | 0.33 | 73 | 1006.8 |
| 20260507164517 | 59 | 0 | 2.6 | 5.2 | 0.00 | 0.65 | 0.33 | 76 | 1006.8 |
| 20260507163518 | 59 | 0 | 1.7 | 7.8 | 0.00 | 0.65 | 0.33 | 77 | 1006.7 |
| 20260507162517 | 59 | 0 | 2.6 | 5.2 | 0.00 | 0.65 | 0.33 | 77 | 1006.9 |
| 20260507161516 | 58 | 0 | 1.7 | 5.2 | 0.00 | 0.65 | 0.33 | 80 | 1006.8 |
| 20260507160516 | 58 | 0 | 2.6 | 7.0 | 0.00 | 0.65 | 0.33 | 82 | 1006.9 |
| 20260507155516 | 57 | 0 | 1.7 | 7.0 | 0.00 | 0.65 | 0.33 | 84 | 1007.1 |
| 20260507154516 | 57 | 0 | 1.7 | 4.3 | 0.00 | 0.65 | 0.33 | 87 | 1007.2 |
| 20260507153517 | 55 | 0 | 1.7 | 5.2 | 0.00 | 0.65 | 0.33 | 90 | 1007.2 |
| 20260507152517 | 54 | 0 | 1.7 | 7.0 | 0.00 | 0.65 | 0.33 | 92 | 1007.2 |
| 20260507151516 | 53 | 0 | 2.6 | 4.3 | 0.00 | 0.65 | 0.33 | 93 | 1007.1 |
| 20260507150516 | 52 | 0 | 1.7 | 5.2 | 0.01 | 0.65 | 0.33 | 94 | 1007.0 |
| 20260507145517 | 52 | 0 | 1.7 | 5.2 | 0.01 | 0.65 | 0.33 | 94 | 1007.3 |
| 20260507144516 | 52 | 0 | 0.9 | 4.3 | 0.01 | 0.65 | 0.33 | 96 | 1007.2 |
| 20260507143516 | 52 | 0 | 1.7 | 3.5 | 0.01 | 0.65 | 0.33 | 96 | 1007.3 |
| 20260507142516 | 52 | 0 | 1.7 | 5.2 | 0.01 | 0.65 | 0.33 | 97 | 1007.4 |
| 20260507141516 | 51 | 0 | 1.7 | 5.2 | 0.01 | 0.65 | 0.33 | 97 | 1007.2 |
| 20260507140516 | 51 | 0 | 2.6 | 5.2 | 0.00 | 0.64 | 0.32 | 97 | 1007.3 |
| 20260507135517 | 51 | 0 | 1.7 | 7.0 | 0.01 | 0.64 | 0.32 | 96 | 1007.1 |
| 20260507134516 | 50 | 0 | 1.7 | 7.8 | 0.01 | 0.64 | 0.32 | 96 | 1007.1 |
| 20260507133536 | 49 | 0 | 2.6 | 5.2 | 0.01 | 0.64 | 0.32 | 96 | 1006.9 |
| 20260507132516 | 49 | 0 | 0.9 | 3.5 | 0.02 | 0.64 | 0.32 | 96 | 1006.9 |
| 20260507131516 | 49 | 0 | 1.7 | 4.3 | 0.02 | 0.64 | 0.32 | 96 | 1007.3 |
| 20260507130538 | 49 | 0 | 2.6 | 7.0 | 0.02 | 0.64 | 0.32 | 96 | 1007.3 |
| 20260507125516 | 49 | 0 | 2.6 | 7.0 | 0.02 | 0.63 | 0.31 | 96 | 1007.3 |
| 20260507124556 | 49 | 0 | 2.6 | 8.7 | 0.02 | 0.63 | 0.31 | 97 | 1007.3 |
| 20260507123516 | 49 | 0 | 2.6 | 7.8 | 0.02 | 0.63 | 0.31 | 96 | 1007.0 |
| 20260507122516 | 49 | 0 | 2.6 | 7.0 | 0.01 | 0.62 | 0.30 | 96 | 1007.3 |
| 20260507121516 | 50 | 0 | 4.3 | 10.4 | 0.02 | 0.62 | 0.30 | 96 | 1007.1 |
| 20260507120516 | 49 | 0 | 4.3 | 12.2 | 0.03 | 0.62 | 0.30 | 96 | 1006.9 |
| 20260507115516 | 49 | 338 | 4.3 | 11.3 | 0.02 | 0.61 | 0.29 | 96 | 1007.4 |
| 20260507114517 | 50 | 338 | 3.5 | 9.6 | 0.02 | 0.61 | 0.29 | 97 | 1007.5 |
| 20260507113516 | 49 | 338 | 4.3 | 10.4 | 0.02 | 0.61 | 0.29 | 97 | 1006.7 |
| 20260507112516 | 50 | 0 | 3.5 | 8.7 | 0.03 | 0.61 | 0.29 | 98 | 1006.6 |
| 20260507111516 | 50 | 315 | 3.5 | 10.4 | 0.02 | 0.60 | 0.28 | 98 | 1006.4 |
| 20260507110537 | 51 | 315 | 4.3 | 11.3 | 0.03 | 0.59 | 0.27 | 98 | 1006.9 |
| 20260507105516 | 51 | 315 | 4.3 | 11.3 | 0.04 | 0.59 | 0.27 | 98 | 1006.6 |
| 20260507104516 | 51 | 338 | 2.6 | 9.6 | 0.14 | 0.59 | 0.27 | 98 | 1006.6 |
| 20260507103517 | 51 | 338 | 3.5 | 9.6 | 0.17 | 0.59 | 0.27 | 98 | 1006.1 |
| 20260507102516 | 51 | 338 | 3.5 | 11.3 | 0.19 | 0.58 | 0.26 | 98 | 1006.3 |
| 20260507101517 | 51 | 338 | 3.5 | 8.7 | 0.19 | 0.58 | 0.26 | 98 | 1006.3 |
| 20260507100516 | 51 | 0 | 3.5 | 10.4 | 0.18 | 0.56 | 0.24 | 98 | 1006.1 |
| 20260507095516 | 52 | 293 | 2.6 | 7.0 | 0.22 | 0.55 | 0.23 | 98 | 1005.6 |
| 20260507094517 | 52 | 68 | 3.5 | 10.4 | 0.13 | 0.45 | 0.13 | 98 | 1006.8 |
| 20260507093516 | 53 | 315 | 3.5 | 9.6 | 0.10 | 0.42 | 0.10 | 98 | 1005.4 |
| 20260507092516 | 54 | 315 | 1.7 | 5.2 | 0.07 | 0.39 | 0.07 | 99 | 1005.7 |
| 20260507091516 | 55 | 315 | 1.7 | 4.3 | 0.07 | 0.39 | 0.07 | 99 | 1005.9 |
| 20260507090516 | 55 | 0 | 0.9 | 4.3 | 0.06 | 0.38 | 0.06 | 99 | 1005.8 |
| 20260507085517 | 55 | 0 | 1.7 | 7.0 | 0.01 | 0.33 | 0.01 | 99 | 1006.1 |
| 20260507084536 | 55 | 0 | 2.6 | 7.8 | 0.00 | 0.32 | 0.00 | 99 | 1006.0 |
| 20260507083515 | 55 | 0 | 1.7 | 4.3 | 0.00 | 0.32 | 0.00 | 98 | 1005.1 |
| 20260507082516 | 56 | 0 | 0.9 | 4.3 | 0.00 | 0.32 | 0.00 | 99 | 1004.8 |
| 20260507081516 | 56 | 0 | 1.7 | 4.3 | 0.00 | 0.32 | 0.00 | 99 | 1004.8 |
| 20260507080516 | 56 | 0 | 0.9 | 4.3 | 0.00 | 0.32 | 0.00 | 99 | 1004.9 |
| 20260507075536 | 56 | 0 | 0.9 | 2.6 | 0.00 | 0.32 | 0.00 | 98 | 1004.9 |
| 20260507074515 | 56 | 0 | 0.9 | 2.6 | 0.00 | 0.32 | 0.00 | 99 | 1005.1 |
| 20260507073516 | 56 | 0 | 0.9 | 3.5 | 0.00 | 0.32 | 0.00 | 99 | 1005.3 |
| 20260507072516 | 56 | 0 | 1.7 | 5.2 | 0.00 | 0.32 | 0.00 | 99 | 1005.2 |
| 20260507071516 | 56 | 0 | 1.7 | 4.3 | 0.00 | 0.32 | 0.00 | 99 | 1005.6 |
| 20260507070535 | 56 | 0 | 1.7 | 3.5 | 0.00 | 0.32 | 0.00 | 99 | 1005.4 |
| 20260507065516 | 56 | 0 | 0.9 | 4.3 | 0.00 | 0.32 | 0.00 | 99 | 1005.3 |
| 20260507064516 | 56 | 0 | 1.7 | 5.2 | 0.00 | 0.32 | 0.00 | 98 | 1005.4 |
| 20260507063516 | 57 | 0 | 1.7 | 5.2 | 0.00 | 0.32 | 0.00 | 98 | 1005.5 |
| 20260507062515 | 57 | 0 | 1.7 | 7.8 | 0.00 | 0.32 | 0.00 | 99 | 1005.7 |
| 20260507061516 | 57 | 0 | 2.6 | 8.7 | 0.00 | 0.32 | 0.00 | 99 | 1005.5 |
| 20260507060515 | 57 | 0 | 2.6 | 7.8 | 0.00 | 0.32 | 0.00 | 99 | 1005.5 |
| 20260507055517 | 57 | 0 | 3.5 | 7.8 | 0.00 | 0.32 | 0.00 | 99 | 1005.7 |
| 20260507054515 | 57 | 0 | 2.6 | 7.0 | 0.00 | 0.32 | 0.00 | 98 | 1005.8 |
| 20260507053535 | 57 | 0 | 2.6 | 9.6 | 0.00 | 0.32 | 0.00 | 98 | 1006.1 |
| 20260507052517 | 57 | 0 | 5.2 | 15.6 | 0.00 | 0.32 | 0.00 | 99 | 1006.4 |
| 20260507051517 | 58 | 0 | 3.5 | 9.6 | 0.00 | 0.32 | 0.00 | 99 | 1006.4 |
| 20260507050517 | 58 | 0 | 4.3 | 10.4 | 0.00 | 0.32 | 0.00 | 99 | 1006.2 |
| 20260507045517 | 57 | 0 | 4.3 | 8.7 | 0.00 | 0.32 | 0.00 | 99 | 1006.3 |
| 20260507044538 | 58 | 0 | 3.5 | 10.4 | 0.00 | 0.32 | 0.00 | 98 | 1006.4 |
| 20260507043517 | 58 | 0 | 3.5 | 9.6 | 0.00 | 0.32 | 0.00 | 98 | 1006.5 |
| 20260507042517 | 58 | 0 | 4.3 | 11.3 | 0.00 | 0.32 | 0.00 | 98 | 1006.6 |
| 20260507041517 | 58 | 0 | 3.5 | 15.6 | 0.00 | 0.32 | 0.00 | 98 | 1006.7 |
| 20260507040539 | 58 | 0 | 2.6 | 9.6 | 0.00 | 0.32 | 0.00 | 98 | 1006.6 |
| 20260507035517 | 58 | 0 | 4.3 | 12.2 | 0.00 | 0.32 | 0.32 | 98 | 1006.6 |
| 20260507034516 | 58 | 0 | 5.2 | 13.0 | 0.00 | 0.32 | 0.32 | 98 | 1006.7 |
| 20260507033516 | 58 | 0 | 7.0 | 14.8 | 0.00 | 0.32 | 0.32 | 98 | 1006.6 |
| 20260507032516 | 58 | 0 | 6.1 | 12.2 | 0.00 | 0.32 | 0.32 | 98 | 1006.4 |
| 20260507031516 | 58 | 0 | 4.3 | 14.8 | 0.00 | 0.32 | 0.32 | 98 | 1006.2 |
| 20260507030516 | 58 | 0 | 5.2 | 16.5 | 0.00 | 0.32 | 0.32 | 98 | 1006.3 |
| 20260507025516 | 58 | 0 | 5.2 | 12.2 | 0.00 | 0.32 | 0.32 | 98 | 1006.6 |
| 20260507024537 | 58 | 0 | 4.3 | 11.3 | 0.00 | 0.32 | 0.32 | 98 | 1006.9 |
| 20260507023517 | 58 | 0 | 5.2 | 13.9 | 0.01 | 0.32 | 0.32 | 98 | 1007.0 |
| 20260507022516 | 58 | 0 | 4.3 | 13.0 | 0.01 | 0.32 | 0.32 | 98 | 1007.1 |
| 20260507021516 | 58 | 0 | 4.3 | 15.6 | 0.01 | 0.32 | 0.32 | 98 | 1007.3 |
| 20260507020516 | 58 | 0 | 4.3 | 11.3 | 0.01 | 0.32 | 0.32 | 98 | 1007.2 |
| 20260507015516 | 58 | 0 | 5.2 | 9.6 | 0.02 | 0.32 | 0.32 | 98 | 1007.4 |
| 20260507014517 | 58 | 0 | 7.0 | 13.9 | 0.03 | 0.32 | 0.32 | 98 | 1007.7 |
| 20260507013516 | 58 | 0 | 7.0 | 15.6 | 0.06 | 0.31 | 0.31 | 98 | 1007.6 |
| 20260507012516 | 58 | 0 | 6.1 | 20.0 | 0.11 | 0.31 | 0.31 | 98 | 1007.6 |
| 20260507011516 | 58 | 0 | 5.2 | 13.0 | 0.15 | 0.31 | 0.31 | 98 | 1007.7 |
| 20260507010516 | 58 | 0 | 6.1 | 14.8 | 0.16 | 0.31 | 0.31 | 98 | 1007.9 |
| 20260507005516 | 57 | 0 | 6.1 | 15.6 | 0.17 | 0.30 | 0.30 | 98 | 1007.8 |
| 20260507004516 | 57 | 0 | 7.0 | 20.0 | 0.17 | 0.29 | 0.29 | 98 | 1007.8 |
| 20260507003516 | 57 | 0 | 6.1 | 13.9 | 0.14 | 0.25 | 0.25 | 97 | 1007.7 |
| 20260507002516 | 57 | 0 | 5.2 | 13.0 | 0.11 | 0.20 | 0.20 | 97 | 1007.6 |
| 20260507001536 | 57 | 0 | 5.2 | 13.9 | 0.11 | 0.16 | 0.16 | 97 | 1007.6 |
| 20260507000516 | 57 | 0 | 5.2 | 11.3 | 0.11 | 0.15 | 0.15 | 97 | 1007.6 |
| 20260506235516 | 58 | 0 | 6.1 | 13.9 | 0.13 | 0.13 | 0.13 | 97 | 1007.8 |
| 20260506234536 | 58 | 0 | 6.1 | 13.0 | 0.12 | 0.12 | 0.12 | 96 | 1007.9 |
| 20260506233516 | 58 | 0 | 7.8 | 22.6 | 0.11 | 0.11 | 0.11 | 96 | 1008.0 |
| 20260506232536 | 58 | 0 | 6.1 | 15.6 | 0.09 | 0.09 | 0.09 | 95 | 1008.1 |
| 20260506231516 | 58 | 0 | 7.0 | 15.6 | 0.05 | 0.05 | 0.05 | 94 | 1008.3 |
| 20260506230516 | 59 | 0 | 6.1 | 15.6 | 0.04 | 0.04 | 0.04 | 93 | 1008.4 |
| 20260506225536 | 60 | 0 | 5.2 | 16.5 | 0.00 | 0.00 | 0.00 | 90 | 1008.3 |
| 20260506224516 | 60 | 0 | 7.0 | 15.6 | 0.00 | 0.00 | 0.00 | 89 | 1008.3 |
| 20260506223516 | 61 | 0 | 6.1 | 17.4 | 0.00 | 0.00 | 0.00 | 88 | 1008.1 |
| 20260506222515 | 61 | 0 | 6.1 | 15.6 | 0.00 | 0.00 | 0.00 | 87 | 1008.2 |
| 20260506221516 | 60 | 0 | 5.2 | 13.0 | 0.00 | 0.00 | 0.00 | 87 | 1008.4 |
| 20260506220515 | 61 | 0 | 5.2 | 10.4 | 0.00 | 0.00 | 0.00 | 87 | 1008.6 |
| 20260506215536 | 61 | 0 | 6.1 | 14.8 | 0.00 | 0.00 | 0.00 | 87 | 1008.4 |
| 20260506214516 | 61 | 0 | 6.1 | 13.0 | 0.00 | 0.00 | 0.00 | 86 | 1008.7 |
| 20260506213515 | 61 | 0 | 6.1 | 19.1 | 0.00 | 0.00 | 0.00 | 86 | 1008.8 |
| 20260506212535 | 61 | 0 | 6.1 | 14.8 | 0.00 | 0.00 | 0.00 | 85 | 1008.8 |